Location: Miami, Florida
(25.6830°N, 80.1700°W)
Time: 16:10:02
(UTC-04:00)

Vanguard 1 Rocket - Visible Passes

Search period start: 23 November 2017 00:00
Search period end: 03 December 2017 00:00
Orbit: 655 x 4222 km, 34.3° (Epoch: 22 November)

Date Brightness Start Highest point End Pass type
(mag) Time Alt. Az. Time Alt. Az. Time Alt. Az.
23 Nov 10.3 03:04:52 52° ENE 03:04:52 52° ENE 03:15:25 10° E visible
23 Nov 9.5 05:22:10 45° WNW 05:30:15 78° SSW 05:41:52 10° SE visible
23 Nov 10.3 20:17:09 10° SSW 20:33:04 53° SE 20:42:51 38° E visible
23 Nov 10.4 22:43:18 10° WSW 23:00:09 69° W 23:00:09 69° W visible
24 Nov 11.1 01:15:29 10° W 01:57:50 24° ENE 02:02:36 10° E visible
24 Nov 9.8 04:15:08 80° NNW 04:16:36 84° NNE 04:30:53 10° ESE visible
24 Nov 9.8 06:32:27 19° WNW 06:45:05 43° SW 06:54:43 10° SSE visible
24 Nov 10.6 19:07:35 10° S 19:20:21 34° SE 19:35:51 16° E visible
24 Nov 10.2 21:30:56 10° SW 21:49:41 81° SSE 21:53:09 73° E visible
25 Nov 11.1 00:00:28 10° W 00:50:50 - ENE 00:10:27 36° W visible
25 Nov 10.3 03:08:08 54° E 03:08:08 54° E 03:19:00 10° E visible
25 Nov 9.7 05:25:27 44° W 05:33:03 66° SW 05:44:58 10° SE visible
25 Nov 10.2 20:19:45 10° SW 20:35:26 63° SE 20:46:07 40° E visible
25 Nov 10.4 22:46:39 10° WSW 23:03:25 67° W 23:03:25 67° W visible
26 Nov 11.1 01:18:59 10° W 02:01:09 25° E 02:06:13 10° E visible
26 Nov 9.8 04:18:27 82° W 04:19:42 87° SSW 04:34:13 10° ESE visible
26 Nov 10.1 06:35:46 18° W 06:47:28 34° SW 06:57:09 10° SSE visible
26 Nov 10.3 19:09:44 10° SSW 19:22:34 43° SE 19:39:04 18° ENE visible
26 Nov 10.2 21:34:04 10° WSW 21:52:32 90° SE 21:56:22 73° ENE visible
27 Nov 11.1 00:04:02 10° W 00:54:11 - E 00:13:39 35° WNW visible
27 Nov 10.3 03:11:30 56° E 03:11:30 56° E 03:22:31 10° ESE visible
27 Nov 9.8 05:28:48 42° W 05:35:40 56° SW 05:47:50 10° SSE visible
27 Nov 10.1 20:22:36 10° SW 20:38:00 73° SE 20:49:16 41° ENE visible
27 Nov 10.5 22:50:09 10° W 23:06:34 64° WNW 23:06:34 64° WNW visible
28 Nov 11.1 01:22:25 10° WNW 02:04:32 26° E 02:09:49 10° E visible
28 Nov 9.9 04:21:51 76° SW 04:22:34 77° SSW 04:37:24 10° SE visible
28 Nov 10.4 06:39:09 16° W 06:49:44 27° SW 06:59:10 10° S visible
28 Nov 10.1 19:12:14 10° SSW 19:24:53 52° SE 19:42:08 19° ENE visible
28 Nov 10.2 21:37:23 10° WSW 21:55:34 82° NNW 21:59:26 72° NE visible
29 Nov 11.1 00:07:36 10° W 00:57:34 - E 00:16:43 33° WNW visible
29 Nov 10.3 03:14:53 56° ESE 03:14:53 56° ESE 03:25:54 10° ESE visible
29 Nov 10.1 05:32:12 39° W 05:38:04 46° SW 05:50:28 10° SSE visible
29 Nov 10.0 20:25:41 10° SW 20:40:46 83° SSE 20:52:17 42° ENE visible
29 Nov 10.5 22:53:43 10° W 23:09:33 60° WNW 23:09:33 60° WNW visible
30 Nov 11.1 01:25:46 10° WNW 02:07:55 27° E 02:13:21 10° ESE visible
30 Nov 10.0 04:25:14 66° SW 04:25:14 66° SW 04:40:21 10° SE visible
30 Nov 10.6 06:42:33 13° W 06:51:57 20° SW 07:00:34 10° SSW visible
30 Nov 9.9 19:15:00 10° SW 19:27:23 62° SE 19:45:04 19° ENE visible
30 Nov 10.2 21:40:50 10° WSW 21:58:49 76° NNW 22:02:22 69° NNE visible
01 Dec 11.1 00:11:08 10° WNW 01:00:57 - E 00:19:39 32° WNW visible
01 Dec 10.3 03:18:16 54° SE 03:18:16 54° SE 03:29:08 10° ESE visible
01 Dec 10.3 05:35:35 34° WSW 05:40:19 37° SW 05:52:46 10° SSE visible
01 Dec 10.0 20:28:56 10° WSW 20:43:46 88° NNW 20:55:08 42° ENE visible
01 Dec 10.5 22:57:19 10° W 23:12:25 57° NW 23:12:25 57° NW visible
02 Dec 11.1 01:29:00 10° WNW 02:11:16 27° ESE 02:16:46 10° ESE visible
02 Dec 10.1 04:28:34 56° SW 04:28:34 56° SW 04:43:05 10° SSE visible
02 Dec 10.9 06:46:10 10° W 06:54:13 14° WSW 07:00:41 10° SSW visible
02 Dec 9.8 19:17:58 10° SW 19:30:06 73° SE 19:47:53 20° ENE visible
02 Dec 10.2 21:44:24 10° W 22:02:13 72° N 22:05:09 68° NNE visible
